EW8735 Weather Reports


time (UTC)temp
F
wind
direction
speed
knots
gust
knots
rain 1hr
in
rain 24hr
in
rain mn
in
humidity
%
barometer
mb
20260504050118 58 8 0.0 0.0 0.00 0.00 0.00 64 1005.5
20260504044559 59 8 0.0 0.0 0.00 0.00 0.00 63 1005.6
20260504043105 59 8 0.0 0.0 0.00 0.00 0.00 63 1005.5
20260504041600 61 8 0.0 0.0 0.00 0.00 0.00 60 1005.4
20260504040105 62 8 0.0 0.0 0.00 0.00 0.00 59 1005.3
20260504034616 63 8 0.0 0.0 0.00 0.00 0.00 58 1005.2
20260504033104 64 8 0.0 0.0 0.00 0.00 0.00 57 1005.0
20260504031604 68 8 0.0 0.0 0.00 0.00 0.00 52 1005.0
20260504030057 72 8 0.0 0.0 0.00 0.00 0.00 47 1004.9
20260504024558 74 8 0.0 0.0 0.00 0.00 0.00 45 1004.9
20260504023056 75 8 0.0 0.0 0.00 0.00 0.00 40 1005.0
20260504021557 76 8 0.0 0.0 0.00 0.00 0.00 37 1005.1
20260504020104 77 4 0.0 0.0 0.00 0.00 0.00 35 1005.3
20260504014556 78 354 0.0 0.0 0.00 0.00 0.00 34 1005.5
20260504013152 79 354 0.0 0.0 0.00 0.00 0.00 33 1005.5
20260504011550 79 354 0.0 0.0 0.00 0.00 0.00 32 1005.7
20260504010050 79 350 0.0 0.0 0.00 0.00 0.00 31 1005.8
20260504004546 80 359 0.0 0.0 0.00 0.00 0.00 31 1006.0
20260504003047 80 359 0.0 0.0 0.00 0.00 0.00 30 1006.1
20260504001544 80 359 0.0 0.0 0.00 0.00 0.00 29 1006.3
20260504000046 81 4 0.0 0.0 0.00 0.00 0.00 28 1006.4
20260503234541 81 4 0.0 0.0 0.00 0.00 0.00 28 1006.5
20260503233040 80 4 0.0 0.0 0.00 0.00 0.00 30 1006.6
20260503231540 81 359 0.0 0.0 0.00 0.00 0.00 28 1006.7
20260503230039 81 354 0.0 0.0 0.00 0.00 0.00 29 1006.8
20260503224536 82 354 0.0 0.0 0.00 0.00 0.00 28 1006.9
20260503223034 81 354 0.0 0.0 0.00 0.00 0.00 24 1007.2
20260503221534 81 354 0.0 0.0 0.00 0.00 0.00 27 1007.2
20260503220032 82 354 0.0 0.0 0.00 0.00 0.00 33 1007.5
20260503214539 81 354 0.0 0.0 0.00 0.00 0.00 34 1007.6
20260503213029 81 359 0.0 0.0 0.00 0.00 0.00 29 1007.8
20260503211525 81 359 0.0 0.0 0.00 0.00 0.00 32 1008.1
20260503210024 81 354 0.0 0.0 0.00 0.00 0.00 32 1008.2
20260503204520 80 359 0.0 0.0 0.00 0.00 0.00 33 1008.3
20260503203017 79 354 0.0 0.0 0.00 0.00 0.00 37 1008.5
20260503201516 78 354 0.0 0.0 0.00 0.00 0.00 41 1008.8
20260503200013 77 354 0.0 0.0 0.00 0.00 0.00 38 1008.9
20260503194510 76 354 0.0 0.0 0.00 0.00 0.00 37 1009.2
20260503193009 76 354 0.0 0.0 0.00 0.00 0.00 36 1009.4
20260503191515 76 354 0.0 0.0 0.00 0.00 0.00 37 1009.6
20260503190007 74 354 0.0 0.0 0.00 0.00 0.00 42 1009.8
20260503184629 73 359 0.0 0.0 0.00 0.00 0.00 45 1009.9
20260503183102 72 359 0.0 0.0 0.00 0.00 0.00 46 1010.0
20260503181614 72 359 0.0 0.0 0.00 0.00 0.00 41 1010.2
20260503180116 72 354 0.0 0.0 0.00 0.00 0.00 45 1010.4
20260503174558 72 354 0.0 0.0 0.00 0.00 0.00 42 1010.4
20260503173102 72 354 0.0 0.0 0.00 0.00 0.00 46 1010.5
20260503171549 71 354 0.0 0.0 0.00 0.00 0.00 48 1010.5
20260503081541 53 322 0.0 0.0 0.00 0.00 0.00 80 1009.4